Weather in Lyskovo

Russia / Nizhny Novgorod Oblast'     56°01′16″N   45°02′27″E
temp.,
°C
wind,
m/s
gust,
m/s
humid.,
%
clouds,
%
prec.,
mm/h
press.,
hPa
HPBL,
m
28 january, thu
thu2800:000s71495100 1.4 1012492
03:00+1s51199100 1.9 1011305
06:00−1s51093100 0.2 1011392
09:00−2s51094100 0.8 1011424
12:00−2s5992100 0.5 1012477
15:00−3sse4891100 0.5 1011407
18:00−4sse51191100 0.0 1011387
21:00−6sse489499 0.0 1010237
29 january, fri
fri2900:00−9sse489595 0.0 1011188
03:00−9se479598 0.0 1009190
06:00−7sse4894100 0.1 1008305
09:00−5se5994100 0.1 1007375
12:00−3sse61093100 0.1 1006520
15:00−2sse5994100 0.3 1005516
18:00−3se499397 0.1 1004214
21:00−3s4119399 0.1 1003448
30 january, sat
sat3000:00−3s51291100 0.0 1002379
03:00−4s51393100 0.0 1002388
06:00−4s6129261 0.0 1000434
09:00−4sse6129378 0.1 999424
12:00−3sse61195100 0.4 997634
15:000sw71190100 1.4 998811
18:00−6sw6148657 0.1 1000403
21:00−7ssw5149145 0.1 1003453
31 january, sun
sun3100:00−7ssw5119395 0.0 1004335
03:00−6s6119298 0.0 1004347
06:00−4sse71595100 0.7 1000582
09:00+1s81698100 1.6 998790
12:00+1s91598100 1.3 9971020
15:000s101797100 2.0 9951052
18:000s91696100 1.1 992882
21:00+1ssw81497100 2.6 990762
1 february, mon
mon100:00−1sw91690100 0.1 992865
03:00−4w111887100 0.4 999919
06:00−6wsw81688100 0.0 1005596
09:00−8sw61292100 0.0 1010468
12:00−6sw5991100 0.0 1013431
15:00−6ssw4892100 0.0 1013350
18:00−7sse4893100 0.0 1012233
21:00−6se51195100 1.3 1008391